FW1358 Weather Reports


time (UTC)temp
C
wind
direction
speed
KPH
gust
KPH
rain 1hr
cm
rain 24hr
cm
rain mn
cm
humidity
%
barometer
mb
20260507110302 11 344 0.0 0.0 0.00 0.61 0.03 93 1014.7
20260507105802 11 344 0.0 0.0 0.00 0.69 0.03 93 1014.5
20260507105306 11 344 0.0 0.0 0.00 0.74 0.03 93 1014.3
20260507104303 11 344 0.0 0.0 0.00 0.84 0.03 93 1014.4
20260507102803 11 344 0.0 0.0 0.00 0.99 0.03 93 1014.3
20260507102306 11 344 0.0 0.0 0.00 1.02 0.03 93 1014.3
20260507101303 11 344 0.0 0.0 0.03 1.17 0.03 93 1014.2
20260507092306 11 344 0.0 0.0 0.03 1.91 0.03 93 1014.1
20260507091802 11 344 0.0 0.0 0.00 1.91 0.00 93 1014.2
20260507085802 11 344 0.0 0.0 0.00 1.98 0.00 93 1014.0
20260507085306 11 344 0.0 0.0 0.00 2.01 0.00 93 1014.2
20260507084802 11 344 0.0 0.0 0.00 2.03 0.00 93 1014.2
20260507083303 11 344 0.0 0.0 0.00 2.11 0.00 93 1013.8
20260507082306 11 344 0.0 0.0 0.00 2.11 0.00 93 1013.9
20260507080303 12 344 0.0 0.0 0.00 2.11 0.00 94 1014.2
20260507075306 12 344 0.0 0.0 0.00 2.11 0.00 94 1014.1
20260507073803 12 344 0.0 0.0 0.00 2.11 0.00 94 1014.0
20260507072803 12 344 0.0 0.0 0.00 2.11 0.00 93 1014.0
20260507072306 12 344 0.0 0.0 0.00 2.11 0.00 93 1014.0
20260507071802 12 344 0.0 0.0 0.00 2.11 0.00 93 1014.1
20260507070803 12 344 0.0 0.0 0.00 2.11 0.00 93 1014.2
20260507064803 12 344 0.0 0.0 0.00 2.11 0.00 93 1014.4
20260507063803 12 344 0.0 0.0 0.00 2.11 0.00 94 1014.7
20260507063303 12 344 0.0 0.0 0.00 2.11 0.00 93 1014.8
20260507062803 12 344 0.0 0.0 0.00 2.11 0.00 93 1014.7
20260507061802 12 344 0.0 0.0 0.00 2.11 0.00 93 1014.6
20260507061302 12 344 0.0 0.0 0.00 2.11 0.00 93 1014.3
20260507060802 12 344 0.0 0.0 0.00 2.11 0.00 93 1014.2
20260507055802 12 344 0.0 0.0 0.00 2.11 0.00 93 1014.4
20260507054303 12 344 0.0 0.0 0.00 2.11 0.00 93 1014.3
20260507053303 12 344 0.0 0.0 0.00 2.11 0.00 93 1014.5
20260507052306 12 344 0.0 0.0 0.00 2.11 0.00 93 1014.5
20260507051302 12 344 0.0 0.0 0.00 2.11 0.00 93 1014.9
20260507050813 12 344 0.0 0.0 0.00 2.11 0.00 93 1015.0
20260507050303 12 344 0.0 0.0 0.00 2.11 0.00 93 1014.9
20260507045306 12 344 0.0 0.0 0.00 2.11 2.11 93 1015.2
20260507044304 12 344 0.0 0.0 0.00 2.11 2.11 93 1015.6
20260507043303 12 344 0.0 0.0 0.00 2.11 2.11 93 1015.3
20260507042802 12 344 0.0 0.0 0.00 2.11 2.11 93 1015.3
20260507042306 12 344 0.0 0.0 0.00 2.11 2.11 93 1015.4
20260507041802 12 344 0.0 0.0 0.00 2.11 2.11 93 1015.3
20260507040803 12 344 0.0 0.0 0.00 2.11 2.11 93 1014.9
20260507040302 12 344 0.0 0.0 0.00 2.11 2.11 93 1015.1
20260507035803 12 344 0.0 0.0 0.00 2.11 2.11 93 1015.3
20260507035305 12 344 0.0 0.0 0.00 2.11 2.11 93 1015.5
20260507034803 12 344 0.0 0.0 0.00 2.11 2.11 93 1015.1
20260507034302 12 344 0.0 0.0 0.00 2.11 2.11 93 1015.0
20260507033302 12 344 0.0 0.0 0.00 2.11 2.11 93 1015.0
20260507032803 12 344 0.0 0.0 0.00 2.11 2.11 93 1014.8
20260507032305 12 344 0.0 0.0 0.00 2.11 2.11 93 1015.1
20260507031303 12 344 0.0 1.6 0.00 2.11 2.11 93 1015.0
20260507030803 13 344 0.0 1.6 0.00 2.11 2.11 93 1015.2
20260507025803 13 200 0.0 0.0 0.00 2.11 2.11 94 1014.9
20260507025306 13 200 0.0 0.0 0.00 2.11 2.11 94 1014.7
20260507024803 13 200 0.0 0.0 0.00 2.11 2.11 94 1014.4
20260507024303 13 200 0.0 0.0 0.00 2.11 2.11 94 1014.4
20260507023803 13 200 0.0 0.0 0.03 2.11 2.11 94 1014.1
20260507022803 13 200 0.0 0.0 0.03 2.11 2.11 94 1014.2
20260507021303 13 200 0.0 0.0 0.05 2.11 2.11 94 1014.6
20260507020803 13 200 0.0 0.0 0.05 2.11 2.11 94 1014.4
20260507015802 13 200 0.0 0.0 0.05 2.11 2.11 94 1014.9
20260507014302 13 200 0.0 0.0 0.05 2.11 2.11 94 1015.2
20260507013302 13 200 0.0 0.0 0.03 2.08 2.08 94 1015.1
20260507011803 13 200 0.0 0.0 0.00 2.06 2.06 94 1014.7
20260507011303 13 200 0.0 0.0 0.00 2.06 2.06 93 1014.6
20260507010303 13 200 0.0 0.0 0.00 2.06 2.06 93 1014.4
20260507005803 13 200 0.0 0.0 0.00 2.06 2.06 93 1014.1
20260507003803 13 200 0.0 0.0 0.00 2.06 2.06 92 1013.7
20260507002306 13 200 0.0 0.0 0.00 2.06 2.06 93 1013.6
20260506235803 13 200 0.0 0.0 0.00 2.06 2.06 93 1013.3
20260506234803 13 200 0.0 0.0 0.00 2.06 2.06 93 1013.8
20260506232802 13 200 0.0 0.0 0.00 2.06 2.06 93 1014.3
20260506231803 13 200 0.0 0.0 0.00 2.06 2.06 93 1014.6
20260506230802 13 200 0.0 0.0 0.03 2.06 2.06 93 1014.4
20260506230303 13 200 0.0 0.0 0.05 2.06 2.06 93 1013.9
20260506225803 13 200 0.0 0.0 0.05 2.06 2.06 93 1014.2
20260506223803 13 200 0.0 0.0 0.05 2.06 2.06 93 1014.3
20260506223303 13 200 0.0 0.0 0.05 2.06 2.06 93 1014.6
20260506222306 13 200 0.0 0.0 0.05 2.06 2.06 93 1014.6
20260506221303 13 200 0.0 0.0 0.03 2.03 2.03 92 1014.7
20260506220803 13 200 0.0 0.0 0.03 2.03 2.03 92 1014.9
20260506215803 13 200 0.0 0.0 0.00 2.01 2.01 92 1014.9
20260506215306 13 200 0.0 0.0 0.00 2.01 2.01 92 1014.9
20260506214803 13 200 0.0 0.0 0.00 2.01 2.01 92 1014.8
20260506214303 13 200 0.0 0.0 0.00 2.01 2.01 92 1014.6
20260506212306 13 200 0.0 0.0 0.00 2.01 2.01 91 1014.0
20260506211303 13 200 0.0 0.0 0.00 2.01 2.01 92 1013.5
20260506210803 13 200 0.0 0.0 0.00 2.01 2.01 92 1013.5
20260506205802 13 200 0.0 0.0 0.00 2.01 2.01 92 1013.5
20260506204803 13 200 0.0 0.0 0.00 2.01 2.01 92 1013.7
20260506204302 13 200 0.0 0.0 0.00 2.01 2.01 92 1013.8
20260506203803 13 200 0.0 0.0 0.00 2.01 2.01 91 1013.8
20260506201803 13 200 0.0 0.0 0.00 2.01 2.01 91 1013.9
20260506201303 14 200 0.0 0.0 0.00 2.01 2.01 91 1013.5
20260506195306 14 200 0.0 0.0 0.03 2.01 2.01 92 1013.4
20260506194803 14 200 0.0 0.0 0.03 2.01 2.01 92 1013.4
20260506194303 14 200 0.0 0.0 0.05 2.01 2.01 92 1013.4
20260506193803 13 200 0.0 0.0 0.08 2.01 2.01 92 1013.3
20260506193302 13 200 0.0 0.0 0.08 2.01 2.01 92 1013.7
20260506192803 13 200 0.0 0.0 0.08 2.01 2.01 93 1013.6
20260506192305 13 200 0.0 0.0 0.08 2.01 2.01 93 1013.7
20260506191303 13 200 0.0 0.0 0.08 2.01 2.01 93 1013.8
20260506190303 13 200 0.0 0.0 0.08 2.01 2.01 92 1013.6
20260506185803 13 200 0.0 0.0 0.08 2.01 2.01 92 1014.2
20260506184303 13 200 0.0 0.0 0.03 1.96 1.96 92 1014.5
20260506183803 13 200 0.0 0.0 0.00 1.93 1.93 92 1014.3
20260506182306 13 200 0.0 0.0 0.00 1.93 1.93 92 1014.1
20260506181303 13 200 0.0 0.0 0.00 1.93 1.93 92 1013.7
20260506180303 13 200 0.0 0.0 0.00 1.93 1.93 92 1013.8
20260506175306 13 200 0.0 0.0 0.00 1.93 1.93 92 1013.3
20260506174803 13 200 0.0 0.0 0.00 1.93 1.93 92 1013.3
20260506174302 13 200 0.0 0.0 0.00 1.93 1.93 92 1013.6
20260506173303 13 200 0.0 0.0 0.00 1.93 1.93 92 1013.6
20260506172803 13 200 0.0 0.0 0.00 1.93 1.93 92 1013.8
20260506171803 13 200 0.0 0.0 0.00 1.93 1.93 92 1013.8
20260506170802 13 200 0.0 0.0 0.00 1.93 1.93 92 1012.8
20260506165305 13 200 0.0 0.0 0.00 1.93 1.93 92 1013.9
20260506164303 13 200 0.0 0.0 0.00 1.93 1.93 92 1014.3
20260506163803 13 200 0.0 0.0 0.00 1.93 1.93 92 1013.7
20260506162306 13 200 0.0 0.0 0.00 1.93 1.93 92 1013.5
20260506161803 13 200 0.0 0.0 0.00 1.93 1.93 93 1013.3
20260506161302 13 200 0.0 0.0 0.00 1.93 1.93 92 1013.5
20260506160802 13 200 0.0 0.0 0.00 1.93 1.93 92 1013.6
20260506155802 13 200 0.0 0.0 0.00 1.93 1.93 92 1013.6
20260506155305 13 200 0.0 0.0 0.00 1.93 1.93 92 1013.7
20260506154303 13 200 0.0 0.0 0.00 1.93 1.93 93 1013.6
20260506153803 13 200 0.0 0.0 0.00 1.93 1.93 92 1013.5
20260506153302 13 200 0.0 0.0 0.00 1.93 1.93 92 1013.5
20260506152305 13 200 0.0 0.0 0.00 1.93 1.93 92 1013.3
20260506151803 13 200 0.0 0.0 0.00 1.93 1.93 92 1013.3
20260506142803 14 200 0.0 0.0 0.03 1.93 1.93 93 1012.1
20260506141303 14 200 0.0 0.0 0.08 1.93 1.93 93 1012.0
20260506140302 14 200 0.0 0.0 0.20 1.93 1.93 92 1011.1
20260506135802 14 200 0.0 0.0 0.23 1.93 1.93 92 1011.1
20260506135305 14 200 0.0 0.0 0.25 1.93 1.93 92 1011.1
20260506134302 13 200 0.0 3.2 0.28 1.93 1.93 92 1011.0
20260506133802 13 108 0.0 0.0 0.28 1.93 1.93 92 1010.7
20260506133302 13 108 0.0 0.0 0.28 1.93 1.93 92 1010.9
20260506132803 13 108 0.0 0.0 0.25 1.91 1.91 91 1011.1
20260506132305 14 108 0.0 3.2 0.25 1.91 1.91 91 1011.7
20260506131803 14 108 0.0 3.2 0.23 1.88 1.88 91 1011.8
20260506130803 14 277 0.0 0.0 0.13 1.78 1.78 90 1012.6
20260506130304 14 277 0.0 0.0 0.08 1.73 1.73 90 1013.1
20260506124303 15 277 0.0 0.0 0.00 1.65 1.65 89 1012.4
20260506123803 15 277 0.0 0.0 0.00 1.65 1.65 89 1012.3
20260506122305 16 277 0.0 0.0 0.03 1.65 1.65 87 1011.4
20260506121303 17 277 0.0 1.6 0.08 1.65 1.65 88 1011.1
20260506115803 18 329 0.0 0.0 0.20 1.65 1.65 93 1009.7
20260506115306 18 329 0.0 1.6 0.25 1.65 1.65 93 1009.4
20260506114803 18 329 0.0 4.8 0.30 1.65 1.65 92 1009.3
20260506113303 18 301 0.0 16.1 0.46 1.65 1.65 92 1009.5
20260506112305 18 202 1.6 9.7 0.51 1.63 1.63 92 1008.8